Location: Grums
(59.3529°N, 13.1129°E)
Time: 01:43:37
(UTC+01:00)

SEEDS - Pass Details

Date: 05 December 2021
Orbit: 584 x 600 km, 97.6° (Epoch: 27 January)

Event Time Altitude Azimuth Distance (km) Brightness Sun altitude
Rises 03:48:20 0° 22° (NNE) 2,828 ? -35.5°
Reaches altitude 10° 03:50:54 10° 37° (NE) 1,921 ? -35.2°
Enters shadow 03:52:13 16° 52° (NE) 1,548 ? -35.0°
